| time (UTC) | temp C | wind direction | speed KPH | gust KPH | rain 1hr cm | rain 24hr cm | rain mn cm | humidity % | barometer mb |
| 20260505124742 | 20 | 153 | 3.2 | 12.9 | 0.00 | 0.00 | 0.00 | 56 | |
| 20260505124239 | 20 | 160 | 4.8 | 4.8 | 0.00 | 0.00 | 0.00 | 57 | |
| 20260505123734 | 20 | 43 | 3.2 | 3.2 | 0.00 | 0.00 | 0.00 | 59 | |
| 20260505123231 | 20 | 150 | 3.2 | 6.4 | 0.00 | 0.00 | 0.00 | 57 | |
| 20260505122728 | 19 | 100 | 1.6 | 3.2 | 0.00 | 0.00 | 0.00 | 59 | |
| 20260505122226 | 18 | 136 | 1.6 | 8.0 | 0.00 | 0.00 | 0.00 | 58 | |
| 20260505121722 | 18 | 103 | 4.8 | 12.9 | 0.00 | 0.00 | 0.00 | 59 | |
| 20260505121218 | 18 | 80 | 3.2 | 6.4 | 0.00 | 0.00 | 0.00 | 60 | |
| 20260505120715 | 18 | 149 | 6.4 | 8.0 | 0.00 | 0.00 | 0.00 | 61 | |
| 20260505120211 | 18 | 105 | 3.2 | 3.2 | 0.00 | 0.00 | 0.00 | 63 | |
| 20260505115710 | 17 | 202 | 0.0 | 6.4 | 0.00 | 0.00 | 0.00 | 61 | |
| 20260505115208 | 17 | 68 | 1.6 | 4.8 | 0.00 | 0.00 | 0.00 | 63 | |
| 20260505114705 | 17 | 59 | 3.2 | 8.0 | 0.00 | 0.00 | 0.00 | 62 | |
| 20260505114201 | 17 | 93 | 4.8 | 6.4 | 0.00 | 0.00 | 0.00 | 62 | |
| 20260505113658 | 17 | 143 | 4.8 | 4.8 | 0.00 | 0.00 | 0.00 | 63 | |
| 20260505113154 | 17 | 128 | 4.8 | 6.4 | 0.00 | 0.00 | 0.00 | 63 | |
| 20260505112651 | 17 | 74 | 1.6 | 8.0 | 0.00 | 0.00 | 0.00 | 64 | |
| 20260505112149 | 17 | 65 | 3.2 | 4.8 | 0.00 | 0.00 | 0.00 | 64 | |
| 20260505111648 | 17 | 50 | 3.2 | 4.8 | 0.00 | 0.00 | 0.00 | 65 | |
| 20260505111144 | 17 | 41 | 4.8 | 6.4 | 0.00 | 0.00 | 0.00 | 63 | |
| 20260505110640 | 17 | 141 | 4.8 | 6.4 | 0.00 | 0.00 | 0.00 | 63 | |
| 20260505110138 | 17 | 140 | 1.6 | 8.0 | 0.00 | 0.00 | 0.00 | 62 | |
| 20260505102114 | 17 | 99 | 3.2 | 4.8 | 0.00 | 0.00 | 0.00 | 62 | |
| 20260505101612 | 17 | 81 | 1.6 | 6.4 | 0.00 | 0.00 | 0.00 | 62 | |
| 20260505101108 | 17 | 69 | 3.2 | 4.8 | 0.00 | 0.00 | 0.00 | 62 | |
| 20260505100604 | 17 | 64 | 3.2 | 11.3 | 0.00 | 0.00 | 0.00 | 62 | |
| 20260505095558 | 16 | 112 | 3.2 | 6.4 | 0.00 | 0.00 | 0.00 | 61 | |
| 20260505095054 | 17 | 54 | 3.2 | 6.4 | 0.00 | 0.00 | 0.00 | 62 | |
| 20260505094551 | 16 | 93 | 0.0 | 4.8 | 0.00 | 0.00 | 0.00 | 62 | |
| 20260505094047 | 16 | 110 | 3.2 | 4.8 | 0.00 | 0.00 | 0.00 | 63 | |
| 20260505093543 | 17 | 30 | 4.8 | 6.4 | 0.00 | 0.00 | 0.00 | 63 | |
| 20260505093041 | 17 | 59 | 3.2 | 6.4 | 0.00 | 0.00 | 0.00 | 62 | |
| 20260505092538 | 17 | 59 | 3.2 | 6.4 | 0.00 | 0.00 | 0.00 | 61 | |
| 20260505092037 | 17 | 211 | 0.0 | 6.4 | 0.00 | 0.00 | 0.00 | 61 | |
| 20260505091533 | 17 | 193 | 0.0 | 4.8 | 0.00 | 0.00 | 0.00 | 61 | |
| 20260505091031 | 17 | 39 | 3.2 | 4.8 | 0.00 | 0.00 | 0.00 | 61 | |
| 20260505090529 | 17 | 74 | 3.2 | 6.4 | 0.00 | 0.00 | 0.00 | 60 | |
| 20260505090027 | 17 | 81 | 4.8 | 6.4 | 0.00 | 0.00 | 0.00 | 58 | |
| 20260505085524 | 17 | 93 | 3.2 | 11.3 | 0.00 | 0.00 | 0.00 | 58 | |
| 20260505085022 | 17 | 154 | 6.4 | 8.0 | 0.00 | 0.00 | 0.00 | 59 | |
| 20260505084520 | 17 | 92 | 1.6 | 4.8 | 0.00 | 0.00 | 0.00 | 60 | |
| 20260505084018 | 17 | 40 | 3.2 | 6.4 | 0.00 | 0.00 | 0.00 | 61 | |
| 20260505083515 | 17 | 16 | 3.2 | 4.8 | 0.00 | 0.00 | 0.00 | 62 | |
| 20260505083011 | 17 | 84 | 0.0 | 3.2 | 0.00 | 0.00 | 0.00 | 62 | |
| 20260505082507 | 17 | 49 | 3.2 | 6.4 | 0.00 | 0.00 | 0.00 | 61 | |
| 20260505082004 | 17 | 41 | 3.2 | 6.4 | 0.00 | 0.00 | 0.00 | 64 | |
| 20260505081501 | 17 | 95 | 4.8 | 4.8 | 0.00 | 0.00 | 0.00 | 63 | |
| 20260505080957 | 17 | 58 | 3.2 | 4.8 | 0.00 | 0.00 | 0.00 | 64 | |
| 20260505080454 | 17 | 56 | 3.2 | 4.8 | 0.00 | 0.00 | 0.00 | 66 | |
| 20260505075949 | 16 | 76 | 3.2 | 4.8 | 0.00 | 0.00 | 0.00 | 69 | |
| 20260505075446 | 16 | 64 | 3.2 | 4.8 | 0.00 | 0.00 | 0.00 | 69 | |
| 20260505074943 | 16 | 48 | 3.2 | 4.8 | 0.00 | 0.00 | 0.00 | 72 | |
| 20260505074441 | 16 | 63 | 3.2 | 4.8 | 0.00 | 0.00 | 0.00 | 73 | |
| 20260505073938 | 15 | 84 | 1.6 | 4.8 | 0.00 | 0.00 | 0.00 | 78 | |
| 20260505073436 | 15 | 69 | 3.2 | 3.2 | 0.00 | 0.00 | 0.00 | 81 | |
| 20260505072932 | 15 | 82 | 1.6 | 3.2 | 0.00 | 0.00 | 0.00 | 83 | |
| 20260505072429 | 15 | 93 | 3.2 | 3.2 | 0.00 | 0.00 | 0.00 | 85 | |
| 20260505071925 | 15 | 85 | 3.2 | 3.2 | 0.00 | 0.00 | 0.00 | 86 | |
| 20260505071421 | 15 | 89 | 3.2 | 3.2 | 0.00 | 0.00 | 0.00 | 87 | |
| 20260505070919 | 15 | 93 | 3.2 | 4.8 | 0.00 | 0.00 | 0.00 | 87 | |
| 20260505070415 | 15 | 75 | 3.2 | 3.2 | 0.00 | 0.00 | 0.00 | 88 | |
| 20260505065911 | 15 | 89 | 3.2 | 3.2 | 0.00 | 0.00 | 0.00 | 88 | |
| 20260505065408 | 15 | 70 | 3.2 | 3.2 | 0.00 | 0.00 | 0.00 | 87 | |
| 20260505064905 | 15 | 55 | 3.2 | 4.8 | 0.00 | 0.00 | 0.00 | 87 | |
| 20260505064402 | 15 | 86 | 3.2 | 4.8 | 0.00 | 0.00 | 0.00 | 88 | |
| 20260505063900 | 15 | 80 | 3.2 | 3.2 | 0.00 | 0.00 | 0.00 | 89 | |
| 20260505063356 | 15 | 81 | 1.6 | 3.2 | 0.00 | 0.00 | 0.00 | 89 | |
| 20260505062852 | 15 | 86 | 1.6 | 3.2 | 0.00 | 0.00 | 0.00 | 90 | |
| 20260505062350 | 15 | 78 | 3.2 | 3.2 | 0.00 | 0.00 | 0.00 | 89 | |
| 20260505061847 | 15 | 99 | 1.6 | 3.2 | 0.00 | 0.00 | 0.00 | 89 | |
| 20260505061345 | 15 | 70 | 3.2 | 3.2 | 0.00 | 0.00 | 0.00 | 88 | |
| 20260505060842 | 15 | 93 | 1.6 | 3.2 | 0.00 | 0.00 | 0.00 | 89 | |
| 20260505060339 | 15 | 64 | 3.2 | 3.2 | 0.00 | 0.00 | 0.00 | 90 | |
| 20260505055835 | 15 | 106 | 3.2 | 3.2 | 0.00 | 0.00 | 0.00 | 91 | |
| 20260505055331 | 15 | 62 | 3.2 | 3.2 | 0.00 | 0.00 | 0.00 | 92 | |
| 20260505054828 | 15 | 77 | 3.2 | 3.2 | 0.00 | 0.00 | 0.00 | 92 | |
| 20260505054325 | 15 | 89 | 1.6 | 3.2 | 0.00 | 0.00 | 0.00 | 92 | |
| 20260505053824 | 15 | 68 | 3.2 | 3.2 | 0.00 | 0.00 | 0.00 | 92 | |
| 20260505053320 | 15 | 76 | 1.6 | 4.8 | 0.00 | 0.00 | 0.00 | 91 | |
| 20260505052817 | 15 | 88 | 3.2 | 3.2 | 0.00 | 0.00 | 0.00 | 91 | |
| 20260505052314 | 15 | 86 | 1.6 | 3.2 | 0.00 | 0.00 | 0.00 | 92 | |
| 20260505051811 | 15 | 67 | 3.2 | 3.2 | 0.00 | 0.00 | 0.00 | 92 | |
| 20260505051309 | 15 | 92 | 3.2 | 3.2 | 0.00 | 0.00 | 0.00 | 93 | |
| 20260505050807 | 15 | 76 | 1.6 | 3.2 | 0.00 | 0.00 | 0.00 | 93 | |
| 20260505050305 | 15 | 56 | 3.2 | 3.2 | 0.00 | 0.00 | 0.00 | 93 | |
| 20260505041735 | 15 | 74 | 1.6 | 3.2 | 0.00 | 0.00 | 0.00 | 93 | |
| 20260505041232 | 15 | 84 | 1.6 | 3.2 | 0.00 | 0.00 | 0.00 | 92 | |
| 20260505040729 | 15 | 62 | 3.2 | 3.2 | 0.00 | 0.00 | 0.00 | 92 | |
| 20260505040226 | 15 | 86 | 3.2 | 3.2 | 0.00 | 0.00 | 0.00 | 92 | |
| 20260505035723 | 15 | 82 | 3.2 | 4.8 | 0.00 | 0.00 | 0.00 | 92 | |
| 20260505035219 | 15 | 81 | 1.6 | 3.2 | 0.00 | 0.00 | 0.00 | 92 | |
| 20260505034716 | 15 | 63 | 3.2 | 4.8 | 0.00 | 0.00 | 0.00 | 91 | |
| 20260505034213 | 15 | 62 | 3.2 | 3.2 | 0.00 | 0.00 | 0.00 | 91 | |
| 20260505033709 | 15 | 78 | 1.6 | 3.2 | 0.00 | 0.00 | 0.00 | 91 | |
| 20260505033208 | 15 | 85 | 1.6 | 3.2 | 0.00 | 0.00 | 0.00 | 90 | |
| 20260505032705 | 16 | 69 | 3.2 | 4.8 | 0.00 | 0.00 | 0.00 | 90 | |
| 20260505032201 | 16 | 88 | 3.2 | 4.8 | 0.00 | 0.00 | 0.00 | 89 | |
| 20260505031658 | 16 | 88 | 1.6 | 4.8 | 0.00 | 0.00 | 0.00 | 88 | |
| 20260505031155 | 16 | 86 | 3.2 | 6.4 | 0.00 | 0.00 | 0.00 | 88 | |
| 20260505030651 | 16 | 67 | 3.2 | 3.2 | 0.00 | 0.00 | 0.00 | 88 | |
| 20260505030147 | 16 | 75 | 3.2 | 3.2 | 0.00 | 0.00 | 0.00 | 87 | |
| 20260505025644 | 16 | 85 | 3.2 | 4.8 | 0.00 | 0.00 | 0.00 | 87 | |
| 20260505025142 | 16 | 88 | 1.6 | 3.2 | 0.00 | 0.00 | 0.00 | 87 | |
| 20260505024639 | 16 | 78 | 1.6 | 4.8 | 0.00 | 0.00 | 0.00 | 86 | |
| 20260505024136 | 16 | 72 | 3.2 | 3.2 | 0.00 | 0.00 | 0.00 | 86 | |
| 20260505023634 | 16 | 69 | 1.6 | 3.2 | 0.00 | 0.00 | 0.00 | 85 | |
| 20260505023131 | 16 | 97 | 3.2 | 3.2 | 0.00 | 0.00 | 0.00 | 84 | |
| 20260505022628 | 16 | 77 | 3.2 | 3.2 | 0.00 | 0.00 | 0.00 | 83 | |
| 20260505022125 | 16 | 96 | 3.2 | 3.2 | 0.00 | 0.00 | 0.00 | 82 | |
| 20260505021622 | 16 | 109 | 3.2 | 3.2 | 0.00 | 0.00 | 0.00 | 81 | |
| 20260505021119 | 17 | 95 | 3.2 | 3.2 | 0.00 | 0.00 | 0.00 | 80 | |
| 20260505020614 | 16 | 125 | 4.8 | 4.8 | 0.00 | 0.00 | 0.00 | 79 | |
| 20260505020111 | 16 | 115 | 3.2 | 4.8 | 0.00 | 0.00 | 0.00 | 79 | |
| 20260505015608 | 16 | 93 | 1.6 | 4.8 | 0.00 | 0.00 | 0.00 | 82 | |
| 20260505015105 | 16 | 100 | 3.2 | 3.2 | 0.00 | 0.00 | 0.00 | 82 | |
| 20260505014601 | 16 | 82 | 3.2 | 3.2 | 0.00 | 0.00 | 0.00 | 83 | |
| 20260505014058 | 16 | 97 | 3.2 | 3.2 | 0.00 | 0.00 | 0.00 | 83 | |
| 20260505013555 | 16 | 80 | 1.6 | 3.2 | 0.00 | 0.00 | 0.00 | 82 | |
| 20260505013053 | 16 | 77 | 3.2 | 3.2 | 0.00 | 0.00 | 0.00 | 82 | |
| 20260505012551 | 16 | 92 | 3.2 | 3.2 | 0.00 | 0.00 | 0.00 | 82 | |
| 20260505012048 | 16 | 95 | 1.6 | 3.2 | 0.00 | 0.00 | 0.00 | 81 | |
| 20260505011543 | 16 | 40 | 3.2 | 3.2 | 0.00 | 0.00 | 0.00 | 79 | |
| 20260505011041 | 16 | 76 | 3.2 | 3.2 | 0.00 | 0.00 | 0.00 | 78 | |
| 20260505010536 | 17 | 66 | 3.2 | 4.8 | 0.00 | 0.00 | 0.00 | 78 | |
| 20260505010033 | 17 | 106 | 3.2 | 3.2 | 0.00 | 0.00 | 0.00 | 77 | |
| 20260505005529 | 17 | 112 | 3.2 | 6.4 | 0.00 | 0.00 | 0.00 | 76 | |
| 20260505005027 | 17 | 112 | 3.2 | 3.2 | 0.00 | 0.00 | 0.00 | 77 | |
| 20260505004523 | 17 | 79 | 3.2 | 3.2 | 0.00 | 0.00 | 0.00 | 77 | |
| 20260505004020 | 17 | 106 | 1.6 | 3.2 | 0.00 | 0.00 | 0.00 | 78 | |
| 20260505003517 | 17 | 100 | 3.2 | 6.4 | 0.00 | 0.00 | 0.00 | 78 | |
| 20260505003015 | 16 | 118 | 3.2 | 3.2 | 0.00 | 0.00 | 0.00 | 80 | |
| 20260505002509 | 16 | 102 | 3.2 | 3.2 | 0.00 | 0.00 | 0.00 | 80 | |
| 20260505002009 | 16 | 101 | 3.2 | 4.8 | 0.00 | 0.00 | 0.00 | 80 | |
| 20260505001506 | 17 | 93 | 3.2 | 3.2 | 0.00 | 0.00 | 0.00 | 80 | |
| 20260505001003 | 16 | 72 | 3.2 | 3.2 | 0.00 | 0.00 | 0.00 | 80 | |
| 20260505000500 | 17 | 37 | 3.2 | 4.8 | 0.00 | 0.00 | 0.00 | 79 | |
| 20260504235957 | 17 | 85 | 3.2 | 3.2 | 0.00 | 0.00 | 0.00 | 78 | |
| 20260504235454 | 17 | 69 | 3.2 | 3.2 | 0.00 | 0.00 | 0.00 | 76 | |
| 20260504234950 | 17 | 103 | 3.2 | 4.8 | 0.00 | 0.00 | 0.00 | 75 | |
| 20260504234448 | 17 | 97 | 1.6 | 4.8 | 0.00 | 0.00 | 0.00 | 76 | |
| 20260504233944 | 17 | 152 | 4.8 | 6.4 | 0.00 | 0.00 | 0.00 | 74 | |
| 20260504233440 | 18 | 126 | 4.8 | 6.4 | 0.00 | 0.00 | 0.00 | 72 | |
| 20260504232937 | 18 | 119 | 4.8 | 8.0 | 0.00 | 0.00 | 0.00 | 68 | |
| 20260504232434 | 18 | 113 | 4.8 | 6.4 | 0.00 | 0.00 | 0.00 | 61 | |
| 20260504231932 | 18 | 114 | 3.2 | 4.8 | 0.00 | 0.00 | 0.00 | 61 | |
| 20260504231427 | 18 | 60 | 3.2 | 4.8 | 0.00 | 0.00 | 0.00 | 62 | |
| 20260504230924 | 18 | 26 | 4.8 | 4.8 | 0.00 | 0.00 | 0.00 | 63 | |
| 20260504230421 | 18 | 8 | 3.2 | 6.4 | 0.00 | 0.00 | 0.00 | 62 | |
| 20260504225920 | 18 | 56 | 0.0 | 4.8 | 0.00 | 0.00 | 0.00 | 63 | |
| 20260504225416 | 18 | 95 | 3.2 | 6.4 | 0.00 | 0.00 | 0.00 | 61 | |
| 20260504224914 | 19 | 37 | 3.2 | 3.2 | 0.00 | 0.00 | 0.00 | 60 | |
| 20260504224410 | 18 | 59 | 1.6 | 4.8 | 0.00 | 0.00 | 0.00 | 60 | |
| 20260504223907 | 18 | 47 | 3.2 | 3.2 | 0.00 | 0.00 | 0.00 | 61 | |
| 20260504223403 | 19 | 132 | 3.2 | 4.8 | 0.00 | 0.00 | 0.00 | 62 | |
| 20260504222859 | 19 | 113 | 3.2 | 3.2 | 0.00 | 0.00 | 0.00 | 60 | |
| 20260504222356 | 19 | 112 | 3.2 | 4.8 | 0.00 | 0.00 | 0.00 | 62 | |
| 20260504221854 | 19 | 127 | 3.2 | 4.8 | 0.00 | 0.00 | 0.00 | 63 | |
| 20260504221351 | 20 | 127 | 3.2 | 6.4 | 0.00 | 0.00 | 0.00 | 61 | |
| 20260504220848 | 20 | 106 | 1.6 | 3.2 | 0.00 | 0.00 | 0.00 | 57 | |
| 20260504220344 | 20 | 114 | 3.2 | 3.2 | 0.00 | 0.00 | 0.00 | 57 | |
| 20260504215842 | 20 | 85 | 1.6 | 3.2 | 0.00 | 0.00 | 0.00 | 58 | |
| 20260504215338 | 20 | 65 | 3.2 | 4.8 | 0.00 | 0.00 | 0.00 | 57 | |
| 20260504214834 | 20 | 25 | 3.2 | 3.2 | 0.00 | 0.00 | 0.00 | 58 | |
| 20260504214331 | 20 | 50 | 0.0 | 3.2 | 0.00 | 0.00 | 0.00 | 60 | |
| 20260504213828 | 20 | 144 | 4.8 | 6.4 | 0.00 | 0.00 | 0.00 | 57 | |
| 20260504213324 | 20 | 117 | 3.2 | 4.8 | 0.00 | 0.00 | 0.00 | 55 | |
| 20260504212822 | 21 | 122 | 1.6 | 3.2 | 0.00 | 0.00 | 0.00 | 53 | |
| 20260504212317 | 21 | 40 | 3.2 | 4.8 | 0.00 | 0.00 | 0.00 | 53 | |
| 20260504211815 | 22 | 37 | 3.2 | 3.2 | 0.00 | 0.00 | 0.00 | 52 | |
| 20260504211311 | 21 | 60 | 0.0 | 4.8 | 0.00 | 0.00 | 0.00 | 51 | |
| 20260504210809 | 21 | 20 | 0.0 | 4.8 | 0.00 | 0.00 | 0.00 | 49 | |
| 20260504210306 | 22 | 49 | 1.6 | 3.2 | 0.00 | 0.00 | 0.00 | 49 | |
| 20260504205803 | 22 | 118 | 3.2 | 3.2 | 0.00 | 0.00 | 0.00 | 52 | |
| 20260504205301 | 22 | 101 | 0.0 | 4.8 | 0.00 | 0.00 | 0.00 | 50 | |
| 20260504204758 | 22 | 60 | 1.6 | 3.2 | 0.00 | 0.00 | 0.00 | 48 | |
| 20260504204256 | 22 | 34 | 3.2 | 3.2 | 0.00 | 0.00 | 0.00 | 51 | |
| 20260504203756 | 22 | 29 | 3.2 | 3.2 | 0.00 | 0.00 | 0.00 | 49 | |
| 20260504203253 | 22 | 32 | 0.0 | 3.2 | 0.00 | 0.00 | 0.00 | 48 | |
| 20260504202752 | 22 | 14 | 3.2 | 3.2 | 0.00 | 0.00 | 0.00 | 48 | |
| 20260504202250 | 22 | 68 | 0.0 | 3.2 | 0.00 | 0.00 | 0.00 | 50 | |
| 20260504201747 | 22 | 63 | 0.0 | 3.2 | 0.00 | 0.00 | 0.00 | 49 | |
| 20260504201244 | 22 | 44 | 3.2 | 3.2 | 0.00 | 0.00 | 0.00 | 48 | |
| 20260504200742 | 22 | 355 | 0.0 | 3.2 | 0.00 | 0.00 | 0.00 | 48 | |
| 20260504200238 | 23 | 109 | 3.2 | 3.2 | 0.00 | 0.00 | 0.00 | 46 | |
| 20260504195735 | 23 | 36 | 0.0 | 1.6 | 0.00 | 0.00 | 0.00 | 45 | |
| 20260504195230 | 23 | 13 | 1.6 | 3.2 | 0.00 | 0.00 | 0.00 | 44 | |
| 20260504194728 | 23 | 80 | 0.0 | 3.2 | 0.00 | 0.00 | 0.00 | 41 | |
| 20260504194224 | 23 | 1 | 3.2 | 3.2 | 0.00 | 0.00 | 0.00 | 43 | |
| 20260504193720 | 23 | 138 | 0.0 | 3.2 | 0.00 | 0.00 | 0.00 | 44 | |
| 20260504193218 | 23 | 93 | 3.2 | 3.2 | 0.00 | 0.00 | 0.00 | 44 | |
| 20260504192716 | 22 | 62 | 0.0 | 3.2 | 0.00 | 0.00 | 0.00 | 47 | |
| 20260504192214 | 23 | 77 | 0.0 | 3.2 | 0.00 | 0.00 | 0.00 | 45 | |
| 20260504191712 | 23 | 131 | 0.0 | 3.2 | 0.00 | 0.00 | 0.00 | 45 | |
| 20260504191209 | 22 | 154 | 0.0 | 3.2 | 0.00 | 0.00 | 0.00 | 43 | |
| 20260504190704 | 22 | 109 | 0.0 | 3.2 | 0.00 | 0.00 | 0.00 | 46 | |
| 20260504190201 | 21 | 181 | 1.6 | 3.2 | 0.00 | 0.00 | 0.00 | 47 | |
| 20260504185657 | 22 | 60 | 0.0 | 4.8 | 0.00 | 0.00 | 0.00 | 46 | |
| 20260504185154 | 22 | 232 | 0.0 | 3.2 | 0.00 | 0.00 | 0.00 | 46 | |
| 20260504184650 | 21 | 359 | 3.2 | 4.8 | 0.00 | 0.00 | 0.00 | 46 | |
| 20260504184145 | 22 | 93 | 1.6 | 3.2 | 0.00 | 0.00 | 0.00 | 46 | |
| 20260504183642 | 22 | 88 | 1.6 | 3.2 | 0.00 | 0.00 | 0.00 | 46 | |
| 20260504183139 | 22 | 123 | 0.0 | 3.2 | 0.00 | 0.00 | 0.00 | 43 | |
| 20260504182637 | 22 | 57 | 3.2 | 3.2 | 0.00 | 0.00 | 0.00 | 44 | |
| 20260504182134 | 21 | 85 | 3.2 | 3.2 | 0.00 | 0.00 | 0.00 | 48 | |
| 20260504181632 | 21 | 109 | 1.6 | 3.2 | 0.00 | 0.00 | 0.00 | 47 | |
| 20260504181129 | 21 | 120 | 1.6 | 3.2 | 0.00 | 0.00 | 0.00 | 47 | |
| 20260504180628 | 21 | 105 | 1.6 | 3.2 | 0.00 | 0.00 | 0.00 | 47 | |
| 20260504180126 | 21 | 140 | 0.0 | 3.2 | 0.00 | 0.00 | 0.00 | 47 | |
| 20260504175624 | 21 | 116 | 0.0 | 3.2 | 0.00 | 0.00 | 0.00 | 46 | |
| 20260504175120 | 21 | 36 | 0.0 | 4.8 | 0.00 | 0.00 | 0.00 | 45 | |
| 20260504174618 | 20 | 127 | 0.0 | 6.4 | 0.00 | 0.00 | 0.00 | 47 | |
| 20260504174114 | 21 | 69 | 0.0 | 4.8 | 0.00 | 0.00 | 0.00 | 50 | |
| 20260504173611 | 21 | 84 | 0.0 | 3.2 | 0.00 | 0.00 | 0.00 | 48 | |
| 20260504173109 | 21 | 354 | 4.8 | 4.8 | 0.00 | 0.00 | 0.00 | 49 | |
| 20260504172605 | 21 | 93 | 0.0 | 3.2 | 0.00 | 0.00 | 0.00 | 48 | |
| 20260504172102 | 20 | 93 | 1.6 | 3.2 | 0.00 | 0.00 | 0.00 | 46 | |
| 20260504171558 | 20 | 60 | 1.6 | 3.2 | 0.00 | 0.00 | 0.00 | 47 | |
| 20260504171055 | 20 | 113 | 0.0 | 3.2 | 0.00 | 0.00 | 0.00 | 48 | |
| 20260504170551 | 20 | 100 | 3.2 | 3.2 | 0.00 | 0.00 | 0.00 | 50 | |
| 20260504150935 | 17 | 85 | 1.6 | 4.8 | 0.00 | 0.00 | 0.00 | 62 | |
| 20260504150432 | 16 | 12 | 3.2 | 4.8 | 0.00 | 0.00 | 0.00 | 60 | |
| 20260504140858 | 16 | 39 | 1.6 | 4.8 | 0.00 | 0.00 | 0.00 | 57 | |
| 20260504140349 | 17 | 66 | 1.6 | 4.8 | 0.00 | 0.00 | 0.00 | 56 | |
| 20260504130817 | 15 | 58 | 3.2 | 6.4 | 0.00 | 0.00 | 0.00 | 60 | |
| 20260504130313 | 15 | 122 | 4.8 | 6.4 | 0.00 | 0.00 | 0.00 | 59 |